Location: Bonnegarde
(43.5677°N, 0.7048°W)
Time: 12:44:06
(UTC+00:00)

Daily predictions for brighter satellites

Satellite Brightness Start Highest point End
(mag) Time Altitude Azimuth Time Altitude Azimuth Time Altitude Azimuth
Intercosmos 24 4.5 18:36:58 10° NNW 18:40:36 65° W 18:45:11 10° S
SAR-Lupe-2 4.0 18:40:15 10° SE 18:43:38 41° ENE 18:47:02 10° N
Meteor PRIRODA 4.2 18:45:29 10° SE 18:48:26 31° ENE 18:51:23 10° N
Landsat 7 4.0 18:43:49 10° S 18:48:30 77° WSW 18:53:13 10° NNW
Cosmos 1536 4.1 18:50:06 10° SE 18:52:47 19° E 18:55:31 10° NE
Cosmos 1842 4.1 18:50:07 10° NNE 18:53:13 26° ENE 18:56:17 10° SE
Cosmos 2061 Rocket 4.2 18:47:18 10° S 18:53:44 87° W 19:00:13 10° N
COSMOS 2428 2.7 18:48:19 10° SSW 18:53:58 69° ESE 18:59:41 10° NNE
USA 59 Rocket 0.5 18:50:27 10° NNW 18:54:15 49° NE 18:59:28 10° SE
Cosmos 1707 3.7 18:54:07 10° NNE 18:57:01 23° ENE 18:59:54 10° SE
Cosmos 1818 4.3 18:53:50 10° SW 18:59:12 59° NW 19:04:38 10° NNE
Okean O Rocket 3.3 18:57:42 10° E 19:00:16 16° ENE 19:02:58 10° NNE
Cosmos 1626 4.4 19:02:20 10° NW 19:04:46 23° W 19:07:11 10° SW
USA 306 3.6 19:03:40 10° W 19:06:27 36° NNW 19:09:44 10° NE
Cosmos 2278 Rocket 2.6 19:02:04 10° NNW 19:07:30 45° ENE 19:12:39 11° SE
Meteor 2-4 Rocket 4.4 19:01:40 10° NNW 19:07:32 63° W 19:13:16 10° S
CZ-4B DEB 4.3 19:02:26 10° SSE 19:07:51 61° ENE 19:13:16 10° N
CZ-4 R/B 1.6 19:05:18 10° SE 19:08:54 44° ENE 19:12:37 10° N
Tsikada Rocket 4.4 19:03:59 10° NNW 19:10:14 69° W 19:16:32 10° S
CZ-4B R/B 3.7 19:07:26 10° SE 19:12:26 38° ENE 19:17:23 10° N
Cosmos 1766 Rocket 3.5 19:08:22 10° S 19:12:42 74° E 19:17:05 10° NNE
Cosmos 44 Rocket 4.2 19:09:26 10° NW 19:13:58 46° WSW 19:18:24 10° S
Resurs 01 Rocket 2.2 19:10:25 10° SE 19:14:29 37° ENE 19:18:33 10° N
NOSS 2-1 (C) 3.6 19:10:40 10° NNW 19:14:35 75° NE 19:19:47 11° SE
TSX-5 3.6 19:13:32 10° NW 19:16:39 64° WSW 19:19:58 10° SSE
YAOGAN 1 4.0 19:12:48 10° S 19:16:50 41° W 19:20:54 10° NNW
ADEOS 3.6 19:11:47 10° SSE 19:17:00 88° ENE 19:22:15 10° NNW
USA 290 2.5 19:14:48 10° N 19:18:01 49° ENE 19:20:16 17° SE
Helios 1A 2.8 19:14:06 10° NNE 19:18:10 71° ESE 19:22:12 10° S
GEOS 3 Rocket 3.8 19:13:39 13° ESE 19:18:12 57° NE 19:23:16 10° NNW
USA 186 2.4 19:17:45 17° SE 19:19:46 36° ENE 19:22:46 10° N
CZ-4B R/B 3.4 19:15:08 10° SSE 19:19:52 85° WSW 19:24:42 10° NNW
Cosmos 1814 Rocket 4.1 19:15:01 10° SSW 19:20:20 85° WNW 19:25:38 10° NNE
PAYLOAD B 4.3 19:15:29 10° SSE 19:20:58 61° ENE 19:26:30 10° N
Cosmos 1743 4.2 19:17:58 10° SSW 19:21:19 38° WNW 19:24:41 10° N
SPOT 5 4.4 19:22:14 15° ENE 19:23:16 16° ENE 19:25:55 10° NNE
Okean-O 4.3 19:23:05 15° ENE 19:24:03 16° ENE 19:26:47 10° NNE
KORONAS-FOTON 3.6 19:20:30 10° N 19:24:11 69° E 19:27:50 10° SSE
Cosmos 1408 Rocket 4.3 19:23:04 10° SSE 19:26:53 30° E 19:30:45 10° NNE
SPOT 1/Viking Rocket 3.7 19:22:58 10° S 19:28:08 77° WSW 19:33:20 10° NNW
ISS -3.8 19:24:47 10° SW 19:28:09 89° SSE 19:30:43 16° ENE
NOSS 3-3 (A) 4.2 19:23:28 10° S 19:28:11 35° ESE 19:33:31 10° NE
CZ-4B R/B 2.7 19:25:08 10° SSE 19:28:56 75° ENE 19:32:59 10° N
Cosmos 2237 Rocket 2.2 19:27:31 10° S 19:33:00 57° ESE 19:38:31 10° NNE
SL-08 R/B 3.9 19:29:54 10° N 19:34:46 63° WNW 19:39:36 10° SSW
Aureole 3 Rocket 4.5 19:29:28 10° SSE 19:35:46 35° E 19:40:30 10° NNE
CSL-04 Rocket 3.8 19:31:44 14° SE 19:36:10 54° ENE 19:41:20 10° N
Cosmos 2219 Rocket 4.4 19:33:10 10° WSW 19:37:56 27° NW 19:42:44 10° N
Meteor 1-14 Rocket 4.3 19:36:15 10° SSW 19:41:47 79° W 19:47:21 10° N
Cosmos 1674 3.8 19:38:46 10° NNW 19:41:53 38° W 19:44:58 10° SSW
Cosmos 1328 Rocket 4.2 19:38:17 10° NNW 19:42:30 55° W 19:46:41 10° S
Cosmos 1356 Rocket 3.3 19:40:00 10° N 19:44:13 88° E 19:47:40 15° S
SJ-6B 3.8 19:41:12 10° S 19:44:38 41° W 19:48:05 10° NNW
Meteor 1-11 Rocket 3.7 19:39:19 10° S 19:44:49 57° E 19:50:15 10° NNE
Aureole 1 4.3 19:41:59 10° NNW 19:45:08 69° ENE 19:46:28 35° SE
Lacrosse 4 Rocket 3.6 19:42:12 10° NW 19:45:47 25° WSW 19:49:18 10° SSW
Meteor 1-4 Rocket 3.2 19:44:37 10° NNW 19:47:08 38° W 19:49:05 14° SSW
CARTOSAT-1 3.4 19:46:05 16° SSE 19:49:25 87° ENE 19:53:41 10° NNW
Cosmos 158 Rocket 3.8 19:45:14 10° S 19:50:00 58° ESE 19:54:47 10° NNE
ATLAS CENTAUR R/B 0.8 19:46:37 10° SSW 19:50:06 72° ESE 19:53:48 10° NE
NOSS 2-1 (E) 4.3 19:47:50 10° NW 19:51:53 56° SW 19:56:03 17° SSE
Cosmos 1805 Rocket 4.0 19:52:47 37° E 19:52:59 37° E 19:56:58 10° NNE
Cosmos 1733 2.9 19:53:50 10° S 19:57:16 80° W 20:00:43 10° N
USA 276 2.3 19:58:15 10° WNW 20:00:38 56° NNW 20:00:38 56° NNW
In-Cosmos 22 4.1 19:56:27 10° N 20:02:11 84° E 20:06:01 21° SSE
Cosmos 1980 3.8 19:56:51 10° SSW 20:02:31 79° WNW 20:08:15 10° NNE
Cosmos 2369 Rocket 3.8 20:00:06 10° N 20:04:09 19° NE 20:05:11 19° ENE
SWARM A 4.2 20:03:48 46° S 20:04:45 89° W 20:08:17 10° N
Sich 1 2.9 20:07:34 54° SE 20:08:06 59° E 20:12:21 10° NNE
BlueWalker 3 3.5 20:08:07 10° WNW 20:11:17 26° SW 20:12:13 23° SSW
Cosmos 1943 Rocket 2.1 20:06:09 10° NNW 20:11:42 88° WSW 20:14:05 36° SSE
CSL-04 Debris 4.4 20:07:38 16° S 20:12:02 72° WSW 20:17:31 10° NNW
Terra 3.2 20:13:52 23° NE 20:13:52 23° NE 20:16:56 10° NNE
ACS3 Solar Sail 1.8 20:09:36 25° SSE 20:13:32 78° ENE 20:19:58 10° N
ERS-1 Rocket 3.9 20:14:03 30° ENE 20:14:03 30° ENE 20:18:14 10° N
Cosmos 1570 Rocket 4.2 20:09:57 10° SSW 20:15:14 74° WNW 20:20:31 10° NNE
Cosmos 2298 Rocket 4.2 20:10:22 10° NNW 20:15:34 54° ENE 20:16:27 48° E
Nadezhda 4 Rocket 4.0 20:10:36 10° N 20:16:53 83° W 20:21:40 18° S
Cosmos 2195 Rocket 4.4 20:10:57 10° N 20:17:01 64° E 20:19:12 40° SE
Cosmos 2150 Rocket 4.0 20:12:11 10° NNW 20:17:15 55° ENE 20:17:56 51° E
USA 32 4.0 20:13:00 10° N 20:18:14 65° E 20:19:24 50° SE
Cosmos 1805 3.9 20:21:37 40° NNE 20:21:37 40° NNE 20:24:04 10° N
Ariane Rocket 4.5 20:24:21 22° NE 20:24:21 22° NE 20:27:27 10° NNE
Cosmos 1315 Rocket 2.8 20:20:15 10° NNW 20:24:13 76° W 20:24:27 73° SW
Cosmos 2026 Rocket 3.9 20:18:12 10° N 20:24:22 62° E 20:25:51 48° SE
Cosmos 1092 Rocket 4.0 20:18:35 10° N 20:24:52 61° E 20:26:28 47° SE
Cosmos 836 Rocket 4.4 20:20:28 10° SSW 20:25:44 90° ESE 20:31:05 10° NNE
SL-16 R/B 2.9 20:35:17 37° ENE 20:35:17 37° ENE 20:38:54 10° NE
Cosmos 1125 Rocket 4.0 20:28:40 10° NNW 20:33:45 55° WSW 20:35:39 35° SSW
Okean O Rocket 2.1 20:35:02 44° SSW 20:36:04 56° W 20:40:26 10° NNW
Cosmos 1634 Rocket 3.9 20:36:32 55° SE 20:37:36 64° E 20:43:51 10° NNE
Cosmos 1656 Rocket 4.2 20:36:04 10° NNW 20:41:19 44° NE 20:41:19 44° NE
SL-14 R/B 4.3 20:38:04 10° N 20:40:36 41° NNW 20:40:36 41° NNW
CZ-4 R/B 4.2 20:41:40 10° WSW 20:43:40 14° W 20:45:43 10° WNW
USA 59 Rocket 2.4 20:40:17 10° WNW 20:43:45 21° WSW 20:46:30 15° SSW
IRS-1C Rocket 4.3 20:45:02 56° NE 20:45:02 56° NE 20:49:47 10° N
Cosmos 773 Rocket 3.8 20:45:39 85° SSE 20:45:46 86° ESE 20:51:06 10° NNE
Resurs 01 Rocket 3.9 20:47:48 11° SW 20:51:00 22° W 20:54:25 10° NW
Cosmos 2278 Rocket 3.9 20:46:34 10° NW 20:51:20 28° WSW 20:54:31 17° SSW
Cosmos 1743 Rocket 4.3 20:56:20 49° WNW 20:56:20 49° WNW 21:00:24 10° N
MetOp-B 4.1 20:56:15 77° SW 20:56:28 78° WSW 21:01:51 10° NNW
Cosmos 2228 Rocket 4.2 20:52:28 10° N 20:55:20 37° N 20:55:20 37° N
Okean-O 3.4 21:00:31 50° WNW 21:00:31 50° WNW 21:04:18 10° NNW
SPOT 5 3.3 21:01:22 56° WNW 21:01:22 56° WNW 21:05:19 10° NNW
NOSS 3-3 (C) 4.4 20:59:14 10° WSW 21:04:30 53° NW 21:10:42 10° NNE
ISS -0.9 21:02:25 10° WNW 21:03:42 18° NW 21:03:42 18° NW
USA 267 4.3 21:08:22 31° NE 21:10:12 36° NNE 21:16:02 10° NW
Cosmos 2237 Rocket 4.3 21:12:53 10° WSW 21:17:25 24° NW 21:21:59 10° N
Cosmos 2279 Rocket 4.1 21:20:00 68° NNE 21:20:00 68° NNE 21:25:23 10° N
Cosmos 1607 4.2 21:16:17 10° SW 21:22:42 67° NW 21:29:08 10° NNE
MOS 1 Rocket 4.4 21:24:48 46° WNW 21:24:48 46° WNW 21:29:18 10° NNW
ATLAS CENTAUR R/B 4.2 21:26:02 10° WNW 21:27:59 14° NW 21:29:51 10° N
Cosmos 2297 4.3 21:24:43 10° NNW 21:28:59 53° NNW 21:28:59 53° NNW
NOSS 3-4 (A) 3.9 21:38:17 10° NW 21:44:37 77° NNW 21:44:37 77° NNW
NOSS 3-4 (C) 3.9 21:38:24 10° NW 21:44:43 76° NNW 21:44:43 76° NNW
Cosmos 2369 Rocket 3.2 21:43:07 10° NNW 21:46:58 44° NW 21:46:58 44° NW
Terra 3.8 21:52:34 26° NW 21:52:34 26° NW 21:54:57 10° NNW
ACS3 Solar Sail 4.1 21:54:51 12° WSW 21:58:14 18° W 22:02:24 10° NW
SL-16 R/B 4.0 22:17:00 26° WNW 22:17:49 26° NW 22:22:33 10° N
ATLAS 2AS CENTAUR R/B 4.5 22:30:49 10° NNW 22:35:55 21° NNE 22:36:31 21° NNE
USA 267 4.5 22:55:43 35° NW 22:55:43 35° NW 22:59:14 10° NW
Cosmos 2344 4.3 23:20:20 10° NW 23:27:14 62° N 23:27:14 62° N
